Lapse_Rate
7.7 6.8 6.7 7.2 7.3 7.4 7.3 7.0 7.0 7.0 6.8 6.7 6.5 6.6 6.3 6.3 6.2 6.0 6.1 6.2 6.7 6.8 6.6 6.8 7.1 6.6 7.0 6.9 6.2 7.0 7.6 7.8 7.3 7.2 7.3 7.3 6.6 6.4 6.5 6.3 6.0 6.5 6.5 6.5 6.6 6.3 6.4
7.4 7.3 7.0 7.1 7.1 7.2 7.6 7.3 7.0 6.8 6.9 6.9 6.7 6.9 6.6 6.2 6.2 6.3 6.2 6.4 6.6 7.1 7.0 6.7 6.7 6.9 6.6 6.5 7.3 7.8 7.4 7.9 8.4 7.4 6.4 7.3 6.9 6.7 6.1 6.2 6.4 6.2 6.3 6.4 6.6 6.4 6.3
6.2 6.4 7.1 6.9 7.0 7.2 7.4 7.2 7.0 6.9 6.8 7.0 7.0 7.1 6.8 6.5 6.2 6.5 6.4 6.8 7.1 7.1 7.0 6.9 6.9 7.1 6.4 6.3 7.6 6.8 8.4 7.9 8.1 7.5 7.6 7.1 6.3 6.9 6.5 6.5 6.4 6.8 6.5 6.5 6.4 6.5 6.5
7.4 7.0 5.9 7.2 7.1 7.0 7.3 7.1 6.9 6.9 6.9 6.8 7.0 6.9 6.8 6.5 6.3 6.5 6.6 6.7 6.9 7.2 7.1 7.2 7.3 7.4 6.6 8.4 7.3 7.3 6.9 8.1 8.0 7.7 7.2 7.2 8.3 7.2 6.7 6.8 6.3 6.5 6.5 6.5 6.5 6.4 6.3
9.2 7.3 6.6 5.8 7.3 7.0 7.2 7.1 7.1 6.9 6.8 6.6 6.6 6.8 6.7 6.9 6.5 6.7 6.6 6.5 6.7 7.0 7.2 7.3 7.0 6.7 6.5 8.3 7.3 7.0 7.3 7.8 7.8 7.6 7.1 8.3 7.7 6.8 6.5 6.5 6.5 6.5 6.5 6.5 6.5 6.4 6.5
9.5 9.3 7.6 6.5 6.2 7.2 7.2 7.1 7.0 6.9 6.9 6.6 6.5 6.6 6.5 6.8 6.6 6.8 6.5 6.4 6.6 7.0 7.2 7.9 7.8 7.1 6.6 7.0 7.8 7.4 7.6 8.1 7.3 7.0 7.2 6.9 5.7 6.5 6.5 6.5 6.5 6.5 6.5 6.5 6.5 6.5 6.5
9.4 9.2 9.1 7.5 6.4 7.0 7.3 7.1 7.2 7.1 6.9 6.7 6.6 6.6 6.4 6.5 6.5 6.7 6.0 5.4 5.6 5.9 6.9 5.3 6.6 6.8 7.7 7.0 8.4 7.7 7.8 7.6 7.4 6.7 6.5 5.9 6.5 6.5 6.5 6.5 6.5 6.5 6.5 6.5 6.5 6.5 6.5
9.2 9.2 9.3 8.6 7.3 6.6 6.7 7.1 7.3 7.2 7.0 6.8 6.4 6.4 6.4 6.2 6.4 6.4 6.5 6.7 6.8 6.3 6.7 6.3 6.4 7.4 7.4 8.1 7.2 7.6 8.1 7.0 6.5 6.5 6.5 6.5 6.5 6.5 6.5 6.5 6.5 6.5 6.5 6.5 6.5 6.5 6.5
9.5 9.2 9.1 9.0 8.4 7.7 6.1 7.0 7.2 7.2 7.0 6.8 6.3 6.3 6.1 6.3 6.5 6.1 5.6 7.3 5.6 7.0 6.6 7.1 6.3 7.0 7.5 7.1 7.1 6.8 7.4 7.0 6.5 6.5 6.5 6.5 6.5 6.5 6.5 6.5 6.5 6.5 6.5 6.5 6.5 6.5 6.5
9.4 9.5 9.2 9.0 8.3 7.8 6.3 5.7 6.9 7.5 7.4 7.1 6.7 6.1 6.0 6.6 6.3 5.3 6.4 6.1 6.1 6.7 6.5 6.5 6.6 7.0 7.6 7.5 6.7 8.0 7.7 7.1 6.5 6.5 6.5 6.5 6.5 6.5 6.5 6.5 6.5 6.5 6.5 6.5 6.5 6.5 6.5
9.5 9.2 9.2 8.9 8.1 8.5 7.5 6.1 5.9 6.5 7.6 7.1 6.4 6.0 5.6 6.4 5.2 6.2 5.6 5.4 5.8 6.6 6.5 6.5 6.7 8.1 7.8 6.8 7.1 6.9 8.1 7.4 6.5 6.5 6.5 6.5 6.5 6.5 6.5 6.5 6.5 6.5 6.5 6.5 6.5 6.5 6.5
9.6 9.4 9.1 9.1 8.4 8.0 7.6 6.9 5.0 5.7 7.1 7.1 5.8 5.9 6.0 6.8 5.3 5.4 5.4 6.0 5.9 6.5 6.5 6.5 6.7 6.5 6.5 6.8 6.8 7.2 7.2 7.8 7.4 6.5 6.5 6.5 6.4 6.5 6.5 6.5 6.5 6.5 6.5 6.5 6.5 6.5 6.5
9.6 9.4 9.0 9.1 8.2 8.1 7.7 6.7 6.4 5.6 6.1 6.4 5.6 5.9 5.7 6.3 5.6 5.7 5.6 5.0 6.5 6.5 6.5 6.5 6.5 6.5 6.5 6.5 6.5 6.5 6.5 6.5 6.5 6.5 6.5 6.5 6.5 6.5 6.5 6.5 6.5 6.5 6.5 6.5 6.5 6.5 6.5
9.6 9.4 9.0 9.1 8.2 7.4 7.2 6.1 5.7 5.3 5.9 5.4 5.6 6.0 6.5 6.6 5.6 5.4 5.5 6.5 6.5 6.5 6.5 6.5 6.5 6.5 6.5 6.5 6.5 6.5 6.5 6.5 6.5 6.5 6.5 6.5 6.5 6.5 6.5 6.5 6.5 6.5 6.5 6.5 6.5 6.5 6.5
9.5 9.3 8.9 8.9 8.6 8.2 7.6 6.8 6.0 5.7 6.0 5.2 5.3 6.1 6.3 5.8 5.9 6.1 5.3 6.5 6.5 6.5 6.5 6.5 6.5 6.5 6.5 6.5 6.5 6.5 6.5 6.5 6.5 6.5 6.5 6.5 6.5 6.5 6.5 6.5 6.5 6.5 6.5 6.5 6.5 6.5 6.5
9.7 9.6 9.2 9.0 7.7 7.9 6.7 6.5 6.6 5.0 5.7 4.9 5.7 6.4 6.3 6.0 6.6 6.5 6.4 6.5 6.5 6.5 6.5 6.5 6.5 6.5 6.5 6.5 6.5 6.5 6.5 6.5 6.5 6.5 6.5 6.5 6.5 6.5 6.5 6.5 6.5 6.5 6.5 6.5 6.5 6.5 6.5
9.8 9.6 9.7 8.9 8.0 7.4 6.6 6.9 6.6 6.3 5.8 5.0 6.0 6.4 6.2 6.1 6.0 6.5 6.5 6.5 6.5 6.6 6.6 6.5 6.5 6.5 6.5 6.5 6.5 6.5 6.5 6.5 6.5 6.5 6.5 6.5 6.5 6.5 6.5 6.5 6.5 6.5 6.5 6.5 6.5 6.5 6.5
9.6 9.6 9.6 8.9 8.6 7.5 7.3 7.0 7.2 5.9 5.3 4.8 5.9 6.5 5.7 5.9 6.5 6.5 6.5 6.5 6.4 6.5 6.7 6.5 6.5 6.5 6.5 6.5 6.5 6.5 6.5 6.5 6.2 6.5 6.5 6.5 6.5 6.5 6.5 6.5 6.5 6.5 6.5 6.5 6.5 6.5 6.5
9.6 9.5 9.6 9.2 8.6 7.4 7.3 7.7 7.4 5.7 5.8 5.2 6.3 6.6 5.8 6.4 6.5 6.5 6.5 6.5 6.5 6.5 6.5 6.5 6.5 6.5 6.5 6.5 6.5 6.5 6.5 6.5 6.4 6.5 6.5 6.5 6.5 6.5 6.5 6.5 6.5 6.5 6.5 6.5 6.5 6.5 6.5
9.6 9.6 9.6 9.6 8.6 7.9 7.7 7.4 7.4 5.0 5.6 5.4 5.8 6.5 6.5 6.3 6.6 6.5 6.5 6.5 6.5 6.8 6.5 6.6 6.5 6.5 6.5 6.5 6.5 6.5 6.5 6.5 6.0 6.5 6.7 6.6 6.5 6.5 6.5 6.5 6.5 6.5 6.5 6.5 6.5 6.5 6.5
9.5 9.6 9.6 9.5 9.2 8.6 7.8 7.5 7.3 6.0 5.5 5.2 5.8 6.5 6.5 6.5 6.5 6.5 6.5 6.5 6.5 6.5 6.6 6.7 6.5 6.5 6.5 6.5 6.5 6.5 6.5 6.5 6.5 6.4 6.5 6.5 6.5 6.5 6.5 6.5 6.5 6.5 6.5 6.5 6.5 6.5 6.5
9.6 9.6 9.6 9.6 9.2 8.9 7.8 7.2 7.1 5.7 4.9 5.5 6.0 6.3 6.3 6.5 6.6 6.5 6.5 6.5 6.5 6.5 6.5 6.5 6.5 6.5 6.5 6.5 6.5 6.5 6.5 6.5 6.5 6.5 6.5 6.5 6.5 6.5 6.5 6.5 6.5 6.5 6.5 6.5 6.5 6.5 6.5
9.5 9.6 9.6 9.6 9.2 8.8 8.2 7.9 7.1 6.4 5.1 5.7 4.9 4.9 6.0 6.5 6.5 6.5 6.5 6.5 6.5 6.5 6.6 6.6 6.5 6.5 6.5 6.5 6.5 6.2 6.0 6.2 6.4 6.5 6.5 6.5 6.5 6.5 6.5 6.5 6.5 6.5 6.5 6.5 6.5 6.5 6.5
9.5 9.6 9.6 9.6 9.2 8.9 8.5 8.0 7.1 6.3 6.1 6.0 4.7 5.3 6.0 6.5 6.5 6.5 6.5 6.5 6.5 6.5 6.5 6.6 6.7 6.5 6.7 6.3 6.6 6.3 6.0 6.2 6.5 6.5 6.4 6.5 6.5 6.5 6.5 6.5 6.5 6.5 6.5 6.5 6.5 6.5 6.5
9.4 9.6 9.6 9.6 9.0 8.8 8.5 8.0 7.3 6.9 5.2 5.1 4.1 4.9 6.0 6.5 6.5 6.5 6.5 6.5 6.4 6.4 6.5 6.5 6.7 6.7 6.2 6.2 6.5 6.5 6.5 6.5 6.5 6.5 6.5 6.5 6.5 6.5 6.5 6.5 6.5 6.5 6.5 6.5 6.5 6.5 6.5
9.4 9.6 9.6 9.6 9.0 9.0 8.1 8.0 6.9 6.8 6.1 5.3 4.4 4.6 5.3 6.4 6.5 6.8 6.5 6.5 6.5 6.5 6.5 6.5 5.2 5.4 5.8 6.5 6.5 6.5 6.5 6.5 6.5 6.5 6.5 6.5 6.5 6.5 6.5 6.5 6.5 6.5 6.5 6.2 6.5 6.5 6.5
9.3 9.4 9.6 9.6 9.1 8.6 8.2 7.8 7.3 6.6 5.9 5.2 4.7 5.2 5.5 6.4 6.0 6.2 6.5 6.5 6.3 6.4 6.5 6.5 6.5 6.2 5.8 6.5 6.5 6.5 6.5 6.5 6.5 6.5 6.5 6.5 6.5 6.5 6.5 6.5 6.5 6.5 6.5 5.9 6.5 6.5 6.3
9.3 9.3 9.6 9.6 9.2 8.5 8.3 7.8 7.4 6.7 5.8 5.2 4.6 4.8 5.9 6.1 6.2 6.5 6.6 5.5 6.0 6.1 6.5 6.4 6.4 6.5 6.5 6.5 6.5 6.5 6.5 6.5 6.5 6.5 6.5 6.5 6.5 6.5 6.5 6.5 6.5 6.2 6.4 6.5 6.4 6.0 5.2
9.3 9.5 9.5 9.5 9.3 9.1 8.3 8.2 7.8 6.8 6.5 5.4 5.1 4.6 4.9 5.9 6.1 5.9 6.3 6.2 6.1 5.4 6.3 5.9 6.5 6.5 6.3 6.5 6.5 6.5 6.5 6.5 6.5 6.5 6.5 6.5 6.5 6.5 6.5 6.5 6.4 5.8 6.2 5.4 4.2 4.5 4.8
Wind_Speed
20 17 19 20 21 16 16 15 12 15 15 12 10 9 9 7 6 5 5 4 5 3 2 3 2 2 2 5 6 6 6 6 5 5 7 9 6 3 5 4 5 13 15 14 17 18 20
22 20 19 20 19 18 16 15 13 14 16 15 13 11 10 8 6 6 6 6 5 5 2 2 1 1 0 10 7 13 7 3 4 8 7 8 6 6 7 6 10 6 10 19 20 18 19
29 25 20 20 21 20 17 16 16 16 15 15 17 13 10 10 8 8 7 7 8 7 5 4 2 3 5 11 8 14 12 7 2 2 1 12 11 4 5 5 5 9 14 16 17 21 15
31 29 28 21 21 20 19 16 17 17 16 15 17 15 12 11 9 9 7 6 8 6 5 5 3 3 6 4 20 14 12 2 2 3 6 8 2 3 4 5 6 4 5 14 12 10 12
32 34 31 27 22 21 20 19 18 18 17 16 16 15 13 12 10 8 5 3 4 5 3 3 2 3 7 2 8 6 7 3 3 4 6 9 3 4 4 3 4 4 9 8 6 7 6
32 34 33 29 29 24 21 19 18 19 19 19 18 17 15 11 9 9 6 4 2 4 2 4 3 1 5 4 4 7 5 6 5 4 3 4 4 5 2 4 12 8 6 11 8 6 12
33 32 32 33 35 27 23 21 20 19 21 21 21 19 16 13 10 11 8 4 3 0 4 9 8 4 4 6 2 5 7 3 4 0 4 5 6 11 11 9 11 8 16 13 11 9 12
31 32 32 33 32 28 28 23 22 20 20 20 21 20 19 15 12 16 5 3 2 3 5 16 16 15 11 2 4 7 7 9 9 15 4 6 17 11 10 12 10 14 15 21 15 15 8
33 32 32 35 33 33 32 24 23 21 20 20 19 20 21 15 12 8 5 5 7 4 4 6 15 12 15 10 12 9 12 10 9 9 12 16 5 15 12 13 14 16 17 16 16 14 15
36 35 35 35 32 33 24 22 20 23 23 20 21 22 22 17 5 5 5 9 8 4 3 4 3 5 7 3 6 16 18 11 7 16 12 14 13 16 12 18 14 17 16 15 16 10 10
35 36 35 35 34 31 21 22 19 20 24 20 23 24 26 21 5 6 3 15 9 2 4 6 5 2 2 8 8 7 13 16 15 10 9 8 7 14 18 24 16 15 13 12 11 12 15
33 37 37 35 36 33 24 18 19 23 23 24 25 27 27 9 3 4 15 11 3 3 8 6 5 4 3 10 6 1 7 9 1 13 14 15 3 4 15 15 16 3 2 8 6 6 11
34 37 38 35 35 36 20 18 24 23 24 26 27 28 20 8 6 14 11 4 3 4 2 6 4 6 8 9 12 8 5 12 5 5 7 6 15 5 3 2 6 4 3 4 5 6 10
36 37 37 36 31 28 31 19 27 28 23 29 30 27 15 6 25 17 4 3 6 5 6 3 3 8 7 8 10 11 3 7 12 6 1 6 5 13 10 10 7 8 14 6 7 6 7
33 36 37 36 31 39 24 22 28 28 18 30 29 8 6 8 22 9 4 4 6 5 3 6 5 6 5 7 5 10 12 5 7 16 7 5 8 4 14 12 13 7 12 19 4 4 3
34 36 35 36 37 43 17 20 24 30 16 32 9 9 8 19 20 8 2 6 5 1 6 5 9 10 7 7 9 9 8 9 8 15 16 3 6 3 9 10 11 11 11 12 5 5 6
34 35 36 37 36 40 18 17 22 24 12 29 7 6 10 21 7 5 3 7 4 6 8 6 7 4 5 7 10 6 6 7 13 11 18 9 6 6 2 12 16 12 7 8 4 8 2
34 34 37 36 33 37 26 21 26 29 20 14 4 5 13 13 7 4 5 5 4 3 4 11 6 7 5 10 10 5 10 7 7 6 14 7 4 5 17 9 13 16 14 10 6 7 9
33 34 36 36 35 36 24 28 30 22 13 5 6 3 10 11 6 5 5 8 7 6 6 7 9 11 9 8 4 13 7 9 13 9 13 9 4 5 6 6 5 14 13 9 9 4 12
33 33 34 34 35 38 32 27 29 31 19 3 4 4 4 4 0 10 8 8 9 5 13 9 4 5 8 5 10 6 12 6 10 13 21 12 4 5 5 4 5 7 21 12 10 6 4
32 31 33 34 35 36 29 31 27 29 20 3 2 2 5 8 7 5 10 4 9 5 9 4 5 12 5 5 5 6 4 2 4 17 5 5 5 3 16 21 16 13 16 17 19 19 7
29 30 31 32 34 35 34 31 26 33 13 2 4 3 2 6 10 14 8 5 5 4 5 3 5 7 11 7 6 3 7 4 4 9 4 4 4 4 5 7 14 15 21 19 10 2 7
29 29 30 31 33 33 32 27 23 27 23 2 2 2 2 5 8 7 7 11 12 11 9 12 11 7 10 15 9 2 4 4 6 10 7 8 3 5 4 12 13 3 9 7 3 1 4
28 27 29 28 31 33 32 27 24 24 23 4 2 3 3 3 3 7 3 11 14 14 11 6 9 12 5 1 5 2 4 5 2 4 8 7 6 3 4 5 2 4 1 6 7 4 3
28 26 29 28 30 31 30 27 25 20 26 1 1 3 3 2 6 8 8 6 3 1 3 11 13 5 8 2 3 2 1 1 4 4 2 3 4 2 2 2 4 3 3 3 6 4 1
27 25 27 27 28 30 30 28 24 22 23 6 2 2 3 3 4 4 3 1 1 3 4 4 1 3 3 2 3 4 3 3 3 2 4 5 3 2 3 1 1 3 3 4 1 1 3
27 25 25 26 27 29 29 26 22 22 22 6 1 2 3 2 3 3 2 2 2 1 2 2 4 1 2 2 1 3 4 6 6 5 5 4 3 5 2 2 6 4 2 4 4 4 3
26 23 24 25 25 27 28 25 22 22 16 6 1 3 3 2 2 3 4 3 1 3 2 1 2 1 2 5 4 3 3 5 4 4 7 7 5 3 3 2 6 4 2 4 4 1 5
24 24 23 24 24 26 26 24 21 21 17 13 2 1 2 1 1 0 2 3 4 5 0 2 2 5 4 3 3 2 2 4 5 4 3 4 6 6 6 5 2 2 2 2 4 5 4
Wind_Direction
293 289 291 294 299 279 282 278 262 238 238 244 239 245 252 263 270 278 285 298 303 299 336 345 355 116 129 234 243 199 157 138 129 152 202 210 248 232 236 253 264 248 243 242 234 240 259
283 288 288 287 288 283 275 276 256 231 233 238 234 235 244 247 253 258 277 272 277 284 307 295 353 80 92 242 248 222 228 265 168 158 192 221 226 223 275 231 248 291 270 246 247 238 247
344 301 280 282 283 286 270 268 255 242 229 233 230 226 230 238 237 252 268 276 261 263 263 256 272 180 238 231 288 336 206 208 144 45 268 215 235 213 337 323 326 265 259 263 254 243 250
332 329 316 276 278 278 278 266 257 241 236 228 229 221 221 227 233 237 268 284 289 254 256 239 264 216 247 214 249 274 295 291 66 264 255 259 246 286 202 292 321 281 271 241 245 256 248
331 333 332 323 275 271 271 266 252 235 236 228 221 219 215 220 219 216 217 260 275 234 219 194 196 186 263 146 236 250 234 236 240 232 239 258 280 220 308 178 263 250 261 269 274 238 252
325 325 328 322 308 269 266 265 253 237 233 222 217 213 207 210 200 198 150 122 85 147 207 198 258 294 265 227 216 215 236 227 229 341 332 211 214 215 190 205 234 246 231 258 247 230 242
333 328 323 322 319 272 267 261 251 240 234 225 211 207 200 194 197 163 132 102 65 220 222 194 194 203 254 193 194 193 206 228 232 2 217 257 211 217 218 230 253 277 282 278 266 241 225
333 329 322 321 318 313 286 259 249 241 230 220 215 198 195 186 183 168 166 174 189 116 267 230 248 226 248 104 228 212 162 191 199 220 202 272 244 217 217 221 225 241 261 268 277 278 231
333 329 328 324 317 311 319 260 254 238 224 216 201 183 177 176 172 154 188 172 143 96 273 219 232 234 221 216 228 209 175 202 197 208 203 223 146 210 217 226 231 231 232 250 254 297 297
336 331 331 329 318 318 304 323 277 251 227 216 190 174 165 149 128 161 195 180 134 98 281 214 233 264 198 177 248 211 190 175 217 206 205 241 235 248 229 229 222 240 236 255 260 261 257
336 330 330 328 321 314 300 322 322 291 235 198 177 167 158 156 152 168 154 125 129 117 308 146 168 265 165 181 134 214 196 211 205 192 183 219 162 207 225 236 212 253 240 262 255 254 268
333 332 327 329 332 317 294 314 315 319 255 189 166 166 162 181 66 139 132 121 115 115 249 172 145 190 169 197 227 141 186 201 235 233 232 244 284 214 234 244 232 202 342 291 242 275 258
334 330 327 331 334 326 296 309 294 326 277 173 166 165 162 153 157 155 134 102 142 202 158 182 189 186 209 195 216 204 195 203 186 193 214 244 253 255 101 260 235 149 208 231 225 217 242
335 328 328 330 335 322 313 318 316 334 266 170 165 160 173 165 143 148 133 126 207 206 214 126 167 195 197 193 212 214 185 211 214 228 20 198 267 197 182 205 197 190 197 215 207 208 223
332 328 328 335 335 329 318 300 306 319 248 167 154 148 167 154 153 155 144 196 209 202 82 154 162 203 198 216 213 204 216 211 217 197 186 202 237 282 192 174 188 185 202 217 329 278 208
328 326 332 338 337 327 315 315 318 302 227 159 153 156 174 159 161 161 168 227 222 201 120 162 205 191 197 197 191 190 189 195 212 199 196 181 278 211 246 178 214 215 162 198 174 248 183
329 334 330 336 340 327 305 299 305 301 218 165 142 153 151 154 154 179 208 209 252 209 152 198 206 217 244 177 187 195 217 246 204 193 188 172 209 171 250 197 185 188 211 202 185 234 289
335 334 330 334 339 333 333 328 292 297 281 156 130 147 156 149 177 196 212 184 245 206 212 225 227 241 248 178 190 226 216 220 214 170 182 173 204 225 237 249 195 196 220 181 187 199 230
333 333 333 333 341 334 337 322 331 343 204 120 136 114 160 159 187 196 210 226 240 221 218 203 211 221 209 157 209 211 207 232 230 153 156 165 230 254 172 187 210 198 196 208 205 117 253
330 334 334 331 338 336 341 337 342 339 153 118 147 135 138 190 221 197 209 226 224 206 241 247 240 276 254 252 198 198 227 255 169 169 136 152 239 250 279 332 156 178 188 185 210 239 219
327 334 333 330 335 337 350 343 343 337 194 130 135 147 143 178 211 213 196 205 214 212 213 224 232 220 239 250 205 191 206 240 171 141 88 105 284 292 271 252 252 176 182 197 219 237 120
329 332 334 329 335 341 344 345 344 338 292 104 128 156 153 167 189 201 213 179 230 187 216 232 210 209 216 237 207 226 178 172 194 159 122 121 270 280 279 178 187 178 200 208 233 119 110
329 332 333 333 334 338 339 342 339 339 340 142 94 14 142 154 168 180 206 216 217 218 216 227 245 242 221 246 250 321 338 246 190 166 153 149 236 301 343 163 168 229 195 180 185 297 112
327 331 331 331 332 335 337 342 338 333 333 276 145 143 117 150 173 214 246 213 225 216 219 195 225 234 241 181 122 41 27 326 124 95 148 179 202 262 312 14 57 236 345 203 176 204 171
325 331 332 331 331 333 335 339 332 329 334 307 167 119 127 156 196 228 277 249 56 172 241 270 252 225 174 238 100 163 339 348 43 76 39 172 159 304 26 299 272 353 15 109 160 249 113
325 328 331 331 332 336 337 334 331 323 329 312 145 88 105 114 210 134 283 245 136 335 252 232 93 286 142 178 127 172 167 152 258 92 265 157 111 71 355 21 124 267 326 330 37 275 42
325 327 329 329 331 337 333 333 329 330 324 318 141 160 106 155 254 150 252 253 150 5 271 299 154 103 338 115 213 164 176 159 167 186 172 146 175 181 264 303 291 254 296 314 111 235 327
325 326 329 329 331 333 333 333 329 326 329 332 118 194 136 170 225 167 171 160 171 165 240 151 122 174 143 156 210 213 149 193 155 174 182 177 152 165 165 221 281 172 57 158 184 62 96
323 327 328 328 327 331 332 334 335 330 329 325 123 162 106 149 265 12 258 231 192 160 155 205 324 191 171 147 218 151 176 152 147 193 216 183 186 166 184 207 212 108 113 107 139 126 113